Location: Twentynine Palms Airport
(34.1316°N, 115.9458°W)
Time: 06:20:36
(UTC-07:00)

Amateur Radio Satellites - All Passes

Search period start: 20 April 2014 05:50
Search period end: 21 April 2014 05:50
Location: Twentynine Palms Airport, 34.1316°N, 115.9458°W

Satellite Date Start Highest point End Downlink Frequencies (MHz)
Time Altitude Azimuth
Uosat F 20 Apr 06:22:59 06:24:32 11° 297° (WNW) 06:26:04 435.120 FM
JAS-2 20 Apr 06:25:13 06:27:05 12° 94° (E) 06:29:01 435.800 - 435.900 CW/SSB, 435.910 FM
PANSAT 20 Apr 06:46:18 06:47:11 11° 157° (SSE) 06:48:05 not established
RS-15 20 Apr 06:47:51 06:59:19 87° 117° (ESE) 07:10:23 29.354 - 29.394 USB, Beacon 29.352 USB
MaSat-1 20 Apr 06:52:13 06:55:13 41° 67° (ENE) 06:58:45 437.345 MHz
Hamsat 20 Apr 06:58:22 07:02:45 88° 102° (ESE) 07:07:07 145.90 MHz
STRAND 1 20 Apr 07:16:34 07:21:21 40° 261° (W) 07:26:09 ?
AO-7 20 Apr 07:37:49 07:41:48 15° 307° (NW) 07:45:49 29.400 - 29.500 MHz
SO-67 20 Apr 07:50:44 07:54:13 64° 100° (E) 07:57:41 435.3500 MHz FM
JAS-2 20 Apr 08:06:58 08:12:27 74° 285° (WNW) 08:18:33 435.800 - 435.900 CW/SSB, 435.910 FM
PANSAT 20 Apr 08:23:35 08:26:51 26° 168° (SSE) 08:30:07 not established
PCSat 20 Apr 08:37:56 08:41:18 16° 51° (NE) 08:44:39 145.825 MHz
RS-15 20 Apr 09:04:14 09:13:05 26° 320° (NW) 09:21:50 29.354 - 29.394 USB, Beacon 29.352 USB
HO-68 20 Apr 09:13:14 09:19:44 36° 98° (E) 09:26:11 435.675 MHz FM
Sapphire 20 Apr 09:35:05 09:40:18 46° 60° (ENE) 09:45:28 437.095 MHz 1200 baud AX-25 AFSK
Saudisat 1A 20 Apr 09:41:54 09:45:09 20° 110° (ESE) 09:48:24 436.775 MHz
PANSAT 20 Apr 10:03:09 10:06:43 35° 181° (S) 10:10:16 not established
FUNcube-1 20 Apr 10:07:50 10:09:21 12° 93° (E) 10:10:53 145.950 - 145.970 MHz USB
Oscar 11 20 Apr 10:12:44 10:16:59 49° 100° (E) 10:21:12 145.825 FM, Beacon 2401.500 USB
PCSat 20 Apr 10:19:48 10:25:10 65° 247° (WSW) 10:30:30 145.825 MHz
HO-68 20 Apr 11:00:51 11:07:19 38° 294° (WNW) 11:13:47 435.675 MHz FM
KITSAT 1 20 Apr 11:05:04 11:12:12 33° 52° (NE) 11:19:16 435.175 FM
Oscar 10/S400 20 Apr 11:13:18 13:00:05 49° 252° (WSW) 18:41:02 145.825 - 145.975 CW/USB, Beacon 145.810 USB
Sapphire 20 Apr 11:19:32 11:23:18 20° 255° (WSW) 11:27:04 437.095 MHz 1200 baud AX-25 AFSK
Saudisat 1A 20 Apr 11:20:26 11:24:30 34° 305° (NW) 11:28:35 436.775 MHz
RS-15 20 Apr 11:30:53 11:31:24 10° 355° (N) 11:31:54 29.354 - 29.394 USB, Beacon 29.352 USB
FUNcube-1 20 Apr 11:41:50 11:45:57 47° 285° (WNW) 11:50:09 145.950 - 145.970 MHz USB
PANSAT 20 Apr 11:43:24 11:46:33 24° 193° (SSW) 11:49:43 not established
Oscar 11 20 Apr 11:50:55 11:52:42 12° 294° (WNW) 11:54:29 145.825 FM, Beacon 2401.500 USB
Oscar 19 20 Apr 12:23:08 12:25:52 15° 64° (ENE) 12:28:36 437.125 CW, 437.150 USB
Oscar 16 20 Apr 12:30:41 12:34:13 19° 66° (ENE) 12:37:46 437.025 USB, Beacon 2401.1428
KITSAT 1 20 Apr 13:00:04 13:07:49 52° 250° (WSW) 13:15:31 435.175 FM
Uribyol 2 20 Apr 13:07:28 13:11:24 23° 67° (ENE) 13:15:20 436.500 FM
ISS 20 Apr 13:30:09 13:32:30 18° 128° (SE) 13:34:50 145.800 FM
RS-15 20 Apr 13:43:05 13:50:31 20° 34° (NNE) 13:57:59 29.354 - 29.394 USB, Beacon 29.352 USB
AO-27 20 Apr 13:46:57 13:52:00 54° 73° (ENE) 13:57:03 436.795 MHz FM
Gurwin Techsat 1B 20 Apr 13:47:57 13:51:03 16° 65° (ENE) 13:54:10 435.225 FM
AO-Echo 20 Apr 13:52:50 13:57:52 48° 73° (ENE) 14:02:48 ?
ITAMSAT 1 20 Apr 13:57:15 14:02:23 68° 75° (ENE) 14:07:32 435.822 SSB
Oscar 19 20 Apr 13:59:38 14:04:40 58° 259° (W) 14:09:45 437.125 CW, 437.150 USB
Oscar 16 20 Apr 14:08:21 14:13:12 43° 261° (W) 14:18:06 437.025 USB, Beacon 2401.1428
SO-50 20 Apr 14:13:00 14:16:31 23° 111° (ESE) 14:20:03 436.795 FM
JAS-1B 20 Apr 14:30:29 14:36:14 22° 66° (ENE) 14:41:20 435.800 - 435.900 CW/SSB
TMSAT-1 20 Apr 14:33:39 14:38:15 31° 70° (ENE) 14:42:51 436.925 FM
Uribyol 2 20 Apr 14:45:54 14:50:37 36° 262° (W) 14:55:22 436.500 FM
AO-7 20 Apr 14:47:22 14:52:58 21° 57° (ENE) 14:58:34 29.400 - 29.500 MHz
ISS 20 Apr 15:05:57 15:09:02 34° 322° (NW) 15:12:07 145.800 FM
OPAL 20 Apr 15:11:40 15:16:45 50° 102° (ESE) 15:21:47 ?
Gurwin Techsat 1B 20 Apr 15:25:19 15:30:31 56° 259° (W) 15:35:44 435.225 FM
AO-27 20 Apr 15:29:00 15:31:47 15° 267° (W) 15:34:34 436.795 MHz FM
AO-Echo 20 Apr 15:33:28 15:36:47 17° 266° (W) 15:40:04 ?
ITAMSAT 1 20 Apr 15:40:47 15:42:17 11° 268° (W) 15:43:46 435.822 SSB
Uosat F 20 Apr 15:50:55 15:55:53 66° 74° (ENE) 16:00:52 435.120 FM
SO-50 20 Apr 15:52:58 15:56:54 30° 306° (NW) 16:00:52 436.795 FM
RS-15 20 Apr 15:54:13 16:05:12 71° 59° (ENE) 16:16:29 29.354 - 29.394 USB, Beacon 29.352 USB
TMSAT-1 20 Apr 16:13:42 16:18:06 27° 264° (W) 16:22:32 436.925 FM
JAS-1B 20 Apr 16:18:09 16:26:28 63° 258° (WSW) 16:33:26 435.800 - 435.900 CW/SSB
UOSAT-12 20 Apr 16:28:38 16:32:35 30° 112° (ESE) 16:36:37 437.025 FM, 437.400 FM
AO-7 20 Apr 16:36:32 16:44:49 80° 254° (WSW) 16:53:08 29.400 - 29.500 MHz
OPAL 20 Apr 16:51:47 16:55:11 18° 296° (WNW) 16:58:34 ?
Uosat F 20 Apr 17:33:39 17:35:03 11° 268° (W) 17:36:26 435.120 FM
Hamsat 20 Apr 17:48:24 17:52:15 37° 73° (ENE) 17:56:10 145.90 MHz
RS-15 20 Apr 18:08:03 18:16:32 27° 256° (WSW) 18:25:17 29.354 - 29.394 USB, Beacon 29.352 USB
UOSAT-12 20 Apr 18:08:59 18:12:43 25° 308° (NW) 18:16:31 437.025 FM, 437.400 FM
JAS-2 20 Apr 18:16:31 18:21:26 29° 70° (ENE) 18:26:01 435.800 - 435.900 CW/SSB, 435.910 FM
SO-67 20 Apr 18:22:47 18:24:19 12° 69° (ENE) 18:25:50 435.3500 MHz FM
AO-7 20 Apr 18:36:03 18:38:35 12° 269° (W) 18:41:09 29.400 - 29.500 MHz
Hamsat 20 Apr 19:26:09 19:28:22 14° 267° (W) 19:30:36 145.90 MHz
STRAND 1 20 Apr 19:30:35 19:35:42 88° 284° (WNW) 19:40:48 ?
HO-68 20 Apr 19:39:45 19:44:23 19° 60° (ENE) 19:49:02 435.675 MHz FM
Saudisat 1A 20 Apr 19:50:22 19:54:44 64° 60° (ENE) 19:59:03 436.775 MHz
SO-67 20 Apr 19:54:07 19:57:10 28° 263° (W) 20:00:14 435.3500 MHz FM
JAS-2 20 Apr 20:01:16 20:06:27 30° 262° (W) 20:11:14 435.800 - 435.900 CW/SSB, 435.910 FM
MaSat-1 20 Apr 20:52:13 20:55:16 55° 112° (ESE) 20:57:56 437.345 MHz
Oscar 11 20 Apr 21:04:47 21:08:16 24° 70° (ENE) 21:11:46 145.825 FM, Beacon 2401.500 USB
HO-68 20 Apr 21:24:12 21:31:19 73° 256° (WSW) 21:38:28 435.675 MHz FM
ISS 20 Apr 21:37:30 21:40:45 46° 40° (NE) 21:43:58 145.800 FM
FUNcube-1 20 Apr 22:34:38 22:38:52 85° 78° (ENE) 22:43:03 145.950 - 145.970 MHz USB
Oscar 11 20 Apr 22:40:57 22:44:21 23° 264° (W) 22:47:47 145.825 FM, Beacon 2401.500 USB
PCSat 20 Apr 23:15:21 23:19:53 28° 107° (ESE) 23:24:27 145.825 MHz
ISS 20 Apr 23:15:31 23:17:09 13° 233° (SW) 23:18:47 145.800 FM
Sapphire 21 Apr 00:12:49 00:18:13 88° 295° (WNW) 00:23:40 437.095 MHz 1200 baud AX-25 AFSK
SO-50 21 Apr 00:27:19 00:32:00 85° 61° (ENE) 00:36:44 436.795 FM
PCSat 21 Apr 00:58:19 01:03:09 33° 303° (WNW) 01:08:01 145.825 MHz
UOSAT-12 21 Apr 01:03:07 01:05:04 12° 46° (NE) 01:07:00 437.025 FM, 437.400 FM
KITSAT 1 21 Apr 01:29:14 01:36:22 35° 107° (ESE) 01:43:30 435.175 FM
Sapphire 21 Apr 02:00:25 02:02:23 12° 313° (NW) 02:04:22 437.095 MHz 1200 baud AX-25 AFSK
AO-27 21 Apr 02:04:20 02:08:39 26° 97° (E) 02:12:57 436.795 MHz FM
AO-Echo 21 Apr 02:05:07 02:08:27 19° 94° (E) 02:11:44 ?
ITAMSAT 1 21 Apr 02:14:20 02:18:58 33° 98° (E) 02:23:35 435.822 SSB
Oscar 19 21 Apr 02:14:56 02:20:08 69° 102° (ESE) 02:25:18 437.125 CW, 437.150 USB
OPAL 21 Apr 02:23:02 02:27:56 58° 72° (ENE) 02:32:56 ?
Oscar 16 21 Apr 02:23:31 02:28:44 90° 284° (WNW) 02:33:56 437.025 USB, Beacon 2401.1428
UOSAT-12 21 Apr 02:41:03 02:45:46 78° 243° (WSW) 02:50:25 437.025 FM, 437.400 FM
TMSAT-1 21 Apr 02:54:10 02:57:27 17° 93° (E) 03:00:44 436.925 FM
Uribyol 2 21 Apr 03:01:54 03:07:05 76° 285° (WNW) 03:12:15 436.500 FM
KITSAT 1 21 Apr 03:23:48 03:31:30 46° 304° (NW) 03:39:15 435.175 FM
AO-Echo 21 Apr 03:43:01 03:47:18 34° 289° (WNW) 03:51:31 ?
AO-27 21 Apr 03:43:37 03:48:06 30° 290° (WNW) 03:52:34 436.795 MHz FM
Gurwin Techsat 1B 21 Apr 03:45:15 03:50:35 81° 103° (ESE) 03:55:53 435.225 FM
ITAMSAT 1 21 Apr 03:54:08 03:58:16 25° 292° (WNW) 04:02:24 435.822 SSB
Oscar 19 21 Apr 03:56:43 03:58:50 13° 297° (WNW) 04:00:57 437.125 CW, 437.150 USB
Uosat F 21 Apr 04:03:01 04:07:14 27° 97° (E) 04:11:25 435.120 FM
OPAL 21 Apr 04:04:52 04:07:08 13° 266° (W) 04:09:26 ?
JAS-1B 21 Apr 04:07:28 04:12:48 41° 100° (E) 04:18:32 435.800 - 435.900 CW/SSB
RS-15 21 Apr 04:12:00 04:13:03 10° 97° (E) 04:14:06 29.354 - 29.394 USB, Beacon 29.352 USB
TMSAT-1 21 Apr 04:32:30 04:37:36 49° 287° (WNW) 04:42:40 436.925 FM
AO-7 21 Apr 04:42:33 04:50:26 45° 101° (E) 04:58:18 29.400 - 29.500 MHz
Gurwin Techsat 1B 21 Apr 05:28:34 05:29:48 11° 298° (WNW) 05:31:01 435.225 FM
KITSAT 1 21 Apr 05:29:02 05:29:14 10° 327° (NNW) 05:29:27 435.175 FM
Uosat F 21 Apr 05:41:42 05:45:55 28° 291° (WNW) 05:50:07 435.120 FM
